This demonstration page uses our WeatherBlox Daily Observations layout. Learn more.

Left ArrowRight Arrow

Hourly Observations for June 26, 2018

Temp ( °F °C ) Dew Point ( °F °C ) Humidity (%) Winds ( mph kmh ) Pressure ( in mb ) Visibility ( mi km ) Precip ( " mm )
12:53 am 00:53 Clear 63 17.2 62 16.7 97 97 WSW 7 11 29.85 1011 10 16 0.00 0.00
1:53 am 01:53 Clear 64 17.8 62 16.7 93 93 W 12 19 29.85 1011 10 16 0.00 0.00
2:53 am 02:53 Clear 64 17.8 62 16.7 93 93 W 14 22 29.85 1011 10 16 0.00 0.00
3:53 am 03:53 Clear 64 17.8 62 16.7 93 93 WNW 10 17 29.84 1010 10 16 0.00 0.00
4:53 am 04:53 Clear 63 17.2 61 16.1 93 93 W 9 15 29.85 1011 10 16 0.00 0.00
5:53 am 05:53 Clear 63 17.2 61 16.1 93 93 NW 10 17 29.86 1011 10 16 0.00 0.00
6:53 am 06:53 Sunny 64 17.8 61 16.1 90 90 NW 9 15 29.87 1012 10 16 0.00 0.00
7:53 am 07:53 Sunny 65 18.3 62 16.7 90 90 NW 7 11 29.87 1012 10 16 0.00 0.00
8:53 am 08:53 Sunny 70 21.1 62 16.7 76 76 NW 10 17 29.87 1011 10 16 0.00 0.00
9:53 am 09:53 Sunny 71 21.7 62 16.7 73 73 NNW 12 19 29.87 1012 10 16 0.00 0.00
10:53 am 10:53 Sunny 74 23.3 63 17.2 69 69 N 8 13 29.87 1011 10 16 0.00 0.00
11:53 am 11:53 Sunny 77 25 63 17.2 62 62 N 5 7 29.88 1012 10 16 0.00 0.00
12:53 pm 12:53 Mostly Sunny 78 25.6 63 17.2 60 60 undefined N/A 29.88 1012 10 16 0.00 0.00
1:53 pm 13:53 Sunny 79 26.1 64 17.8 60 60 NW 5 7 29.86 1011 10 16 0.00 0.00
2:53 pm 14:53 Sunny 80 26.7 66 18.9 62 62 Calm 29.85 1011 10 16 0.00 0.00
3:53 pm 15:53 Sunny 83 28.3 65 18.3 55 55 VRB 3 6 29.83 1010 10 16 0.00 0.00
4:53 pm 16:53 Sunny 82 27.8 64 17.8 55 55 NNW 5 7 29.83 1010 10 16 0.00 0.00
5:53 pm 17:53 Sunny 82 27.8 65 18.3 56 56 W 5 7 29.83 1010 10 16 0.00 0.00
6:53 pm 18:53 Sunny 83 28.3 65 18.3 55 55 Calm 29.82 1010 10 16 0.00 0.00
7:53 pm 19:53 Sunny 81 27.2 68 20 65 65 ENE 3 6 29.82 1010 10 16 0.00 0.00
8:53 pm 20:53 Sunny 79 26.1 68 20 69 69 ENE 3 6 29.81 1010 10 16 0.00 0.00
9:53 pm 21:53 Clear 74 23.3 66 18.9 76 76 E 5 7 29.82 1010 10 16 0.00 0.00
10:53 pm 22:53 Clear 73 22.8 66 18.9 79 79 ESE 8 13 29.82 1010 10 16 0.00 0.00
11:53 pm 23:53 Clear 72 22.2 66 18.9 82 82 SE 8 13 29.84 1010 10 16 0.00 0.00

Powered by AerisWeather